Torna al catalogo

GLOBAL-33

AttivoComunicazioniVLEO
NORAD 66554·PAYLOAD·🇺🇸 United States

Lanciato Nov 20, 2025 da Rocket Lab Launch Complex 1

Loading…

Prossimi Passaggi (prossime 24 ore)

TLE

AggiornatoSource: Space-Track

Epoca: Sep 14, 2026, 10:06 UTC

1 66554U 25267A   26257.42133946  .00009590  00000-0  25354-3 0  9997
2 66554  42.0186 256.4445 0009740 157.9423 202.1837 15.38443981 45783

Traccia GLOBAL-33 in tempo reale con AllMySat

Download on the App Store